User: anonymous   Login
Location: Caltech
(34.1382°N, 118.1253°W)
Time: 21:42:30
(UTC-07:00)
Language:

Cosmos 1937 Rocket - Orbit

View from above orbital plane
View from above orbital plane
View from above satellite
View from above satellite

Ground track
Ground track

The orbit data is extracted from the following two-line orbital elements,

1 19039U 88029B   17232.84999642  .00000052  00000-0  25600-4 0  9999
2 19039  74.0485 180.3519 0024192 334.7249  87.5854 14.38374062540159
Epoch (UTC): 20 August 2017 20:23:59
Eccentricity: 0.0024192
inclination: 74.0485°
perigee height: 746 km
apogee height: 781 km
right ascension of ascending node: 180.3519°
argument of perigee: 334.7249°
revolutions per day: 14.38374062
mean anomaly at epoch: 87.5854°
orbit number at epoch: 54015

The dashed part of the orbit path shows where the satellite is in the earth's shadow,  

DLR